408  
ASUS44 KSHV 241910  
RWRSHV  
 
WEATHER ROUNDUP FOR THE FOUR STATE AREA  
NATIONAL WEATHER SERVICE SHREVEPORT LA  
100 PM CST SAT FEB 24 2018  
 
NOTE: "FAIR" INDICATES FEW OR NO CLOUDS BELOW 12000 FEET  
WITH NO SIGNIFICANT WEATHER AND/OR S TO VISIBILITY
.  
 
!LAZ001-LAZ014-TXZ097-242000  
SHREVEPORT...MONROE...TEXARKANA RADIOS  
 
CITY SKY/WX TMP DP RH WIND PRES REMARKS
 
SHREVEPORT LGT RAIN 74 68 81 S10 29.87F  
MONROE N/A 79 67 66 S22G29 29.90F  
NATCHITOCHES PTSUNNY 77 65 65 S16G26 29.91F  
TEXARKANA N/A 72 67 84 S23G36 29.77F  

 
 
!LAZ001-LAZ014-TXZ097-242000  
OTHER LOCATIONS...  
 
CITY SKY/WX TMP DP RH WIND PRES REMARKS
 
DOWNTOWN SHV CLOUDY 75 66 73 S15G25 29.87F  
BOSSIER CITY LGT RAIN 73 63 68 S15G23 29.86F  
RUSTON N/A 78 63 60 S20G26 29.91F  
LITTLE ROCK CLOUDY 69 68 96 S16G26 29.78F  
EL DORADO CLOUDY 75 67 76 S17G26 29.86F  
JACKSON N/A 81 64 56 S25 29.96F  
NEW ORLEANS PTSUNNY 80 71 74 SE20 30.03F  
HOUSTON PTSUNNY 80 66 62 S20G28 29.91F  
LUFKIN LGT RAIN 74 66 76 S12 29.91F  
TYLER CLOUDY 72 67 84 S21G35 29.83F  
DAL FT WORTH PTSUNNY 54 49 83 NW13 29.87S  

 
 
!TXZ136-TXZ165-242000  
TYLER...LUFKIN RADIOS  
 
CITY SKY/WX TMP DP RH WIND PRES REMARKS
 
TYLER CLOUDY 72 67 84 S21G35 29.83F  
GILMER CLOUDY 70 66 87 S20G26 29.82F  
LONGVIEW LGT RAIN 70 70 100 S16G24 29.85F FOG  
LUFKIN LGT RAIN 74 66 76 S12 29.91F  

 
 
!TXZ136-TXZ165-242000  
OTHER LOCATIONS...  
 
CITY SKY/WX TMP DP RH WIND PRES REMARKS
 
NACOGDOCHES LGT RAIN 73 67 81 S14G20 29.89F  
BEAUMONT CLOUDY 78 68 71 S23G31 29.95F  
HOUSTON PTSUNNY 80 66 62 S20G28 29.91F  
COLLEGE STN CLOUDY 74 68 81 S12 29.88F  
AUSTIN CLOUDY 73 68 84 S17G24 29.88F  
DAL FT WORTH PTSUNNY 54 49 83 NW13 29.87S  
TEXARKANA N/A 72 67 84 S23G36 29.77F  
SHREVEPORT LGT RAIN 74 68 81 S10 29.87F  
FORT POLK PTSUNNY 79 65 62 S21G29 29.91F  
LAKE CHARLES PTSUNNY 78 68 71 S17G26 29.97F  

 
 
 
CLICK HERE TO GO TO PREVIOUS BULLETINS.

The Nexlab LA Page
The Nexlab TX Page
The Nexlab AR Page
The Nexlab OK Page Main Text Page